DL2ZZM-13 Weather Reports


Display with metric or nautical units.
time (UTC)temp
F
wind
direction
speed
MPH
gust
MPH
rain 1hr
in
rain 24hr
in
rain mn
in
humidity
%
barometer
mb
20260507033315 44 203 4.0 5.0 0.00 1.11 0.00 95 1011.8
20260507032335 44 203 3.0 5.0 0.00 1.11 0.00 95 1011.6
20260507031315 44 248 3.0 4.0 0.00 1.11 0.00 95 1011.7
20260507030335 44 225 5.0 6.0 0.00 1.11 0.00 95 1011.6
20260507025315 44 203 4.0 5.0 0.00 1.12 0.00 95 1011.6
20260507024315 44 248 3.0 5.0 0.00 1.12 0.00 95 1011.5
20260507023335 44 203 4.0 5.0 0.00 1.12 0.00 95 1011.4
20260507022315 44 225 4.0 5.0 0.00 1.12 0.00 95 1011.6
20260507021315 44 203 3.0 4.0 0.00 1.12 0.00 95 1011.5
20260507020315 44 225 3.0 4.0 0.00 1.12 0.00 95 1011.5
20260507015315 44 203 3.0 4.0 0.00 1.12 0.00 95 1011.4
20260507014317 44 203 2.0 3.0 0.00 1.12 0.00 95 1011.4
20260507013317 44 225 2.0 3.0 0.00 1.12 0.00 95 1011.3
20260507012317 44 225 2.0 3.0 0.00 1.12 0.00 95 1011.3
20260507011317 43 203 3.0 4.0 0.00 1.12 0.00 94 1011.2
20260507010317 44 203 3.0 4.0 0.00 1.12 0.00 94 1011.1
20260507005317 44 225 4.0 7.0 0.00 1.12 0.00 95 1011.2
20260507004337 44 270 2.0 4.0 0.00 1.12 0.00 94 1011.0
20260507003317 44 225 4.0 6.0 0.00 1.12 0.00 94 1011.1
20260507002317 44 225 5.0 7.0 0.00 1.12 0.00 94 1011.1
20260507001317 44 248 7.0 11.0 0.00 1.12 0.00 94 1011.0
20260507000317 44 248 8.0 10.0 0.00 1.12 0.00 94 1011.2
20260506235315 45 225 7.0 10.0 0.00 1.12 0.00 94 1011.3
20260506234317 45 248 8.0 12.0 0.00 1.12 0.00 95 1011.3
20260506233317 45 248 8.0 12.0 0.00 1.12 0.00 95 1011.3
20260506232317 45 225 6.0 8.0 0.00 1.12 0.00 95 1011.3
20260506231317 46 270 5.0 9.0 0.00 1.12 0.00 95 1011.3
20260506230317 46 248 4.0 7.0 0.00 1.12 0.00 95 1011.3
20260506225317 46 270 2.0 3.0 0.00 1.12 0.00 95 1011.2
20260506224317 46 248 4.0 7.0 0.00 1.12 0.00 95 1011.3
20260506223317 47 248 3.0 5.0 0.00 1.12 0.00 95 1011.2
20260506222317 47 225 6.0 9.0 0.00 1.12 0.00 95 1011.1
20260506221337 47 248 5.0 8.0 0.00 1.12 0.00 95 1011.0
20260506220317 47 270 3.0 5.0 0.00 1.12 0.00 95 1011.0
20260506215316 47 225 4.0 7.0 0.00 1.12 1.12 95 1010.9
20260506214315 47 248 4.0 6.0 0.00 1.12 1.12 95 1010.8
20260506213316 47 225 4.0 6.0 0.00 1.12 1.12 95 1010.8
20260506212315 47 225 4.0 6.0 0.00 1.12 1.12 95 1010.7
20260506211335 47 225 4.0 7.0 0.00 1.12 1.12 95 1010.6
20260506210316 47 225 5.0 7.0 0.00 1.12 1.12 95 1010.5
20260506205315 47 248 5.0 8.0 0.00 1.12 1.12 95 1010.4
20260506204316 47 248 5.0 6.0 0.00 1.12 1.12 94 1010.5
20260506203316 47 225 5.0 6.0 0.00 1.12 1.12 94 1010.5
20260506202336 48 203 4.0 6.0 0.00 1.12 1.12 95 1010.5
20260506201315 48 225 3.0 6.0 0.00 1.12 1.12 95 1010.4
20260506200315 48 225 2.0 3.0 0.00 1.12 1.12 94 1010.2
20260506195316 48 225 5.0 8.0 0.00 1.13 1.12 94 1010.3
20260506194316 48 225 4.0 6.0 0.00 1.13 1.12 94 1010.1
20260506193315 48 248 3.0 5.0 0.00 1.13 1.12 94 1010.0
20260506192315 48 248 5.0 6.0 0.00 1.13 1.12 94 1009.9
20260506191335 48 270 4.0 7.0 0.00 1.13 1.12 94 1009.9
20260506190315 49 248 6.0 10.0 0.00 1.13 1.12 94 1009.7
20260506185315 49 225 4.0 7.0 0.00 1.13 1.12 94 1009.5
20260506184315 49 248 5.0 7.0 0.01 1.13 1.12 94 1009.5
20260506183315 49 248 5.0 7.0 0.01 1.13 1.12 94 1009.3
20260506182315 50 248 4.0 5.0 0.03 1.13 1.12 94 1009.2
20260506181315 49 225 3.0 4.0 0.07 1.13 1.12 94 1009.1
20260506180335 49 293 3.0 4.0 0.13 1.13 1.12 94 1008.9
20260506175315 49 293 3.0 5.0 0.19 1.13 1.12 93 1008.9
20260506174315 49 293 4.0 6.0 0.25 1.12 1.11 93 1008.6
20260506173315 49 315 5.0 8.0 0.24 1.11 1.11 93 1008.4
20260506172317 50 293 7.0 9.0 0.23 1.09 1.09 93 1008.4
20260506171338 50 293 3.0 6.0 0.19 1.06 1.05 93 1008.4
20260506170317 50 315 7.0 11.0 0.13 1.00 0.99 93 1008.4
20260506165317 50 248 5.0 9.0 0.07 0.94 0.93 92 1008.5
20260506164317 50 293 6.0 9.0 0.01 0.87 0.86 92 1008.3
20260506163317 51 315 8.0 12.0 0.05 0.87 0.86 92 1008.3
20260506162317 51 315 8.0 11.0 0.12 0.87 0.86 92 1008.0
20260506161317 51 315 5.0 8.0 0.45 0.87 0.86 91 1007.9
20260506160317 51 293 5.0 9.0 0.82 0.87 0.86 91 1008.0
20260506155457 51 315 6.0 9.0 0.85 0.87 0.86 91 1007.9
20260506154317 51 315 4.0 8.0 0.84 0.86 0.85 89 1007.8
20260506153317 52 315 4.0 5.0 0.80 0.82 0.81 88 1008.0
20260506152317 53 0 3.0 4.0 0.73 0.75 0.74 86 1007.8
20260506151317 55 68 3.0 4.0 0.40 0.42 0.41 83 1007.5
20260506150317 58 113 1.0 3.0 0.03 0.05 0.04 79 1007.2
20260506145317 59 315 3.0 8.0 0.00 0.02 0.01 77 1006.8
20260506144317 60 315 3.0 4.0 0.00 0.02 0.01 76 1006.8
20260506142317 60 0.0 0.0 0.00 0.02 0.01 76 1007.1
20260506141317 60 338 1.0 3.0 0.00 0.02 0.01 75 1007.0
20260506140357 61 315 2.0 4.0 0.00 0.02 0.01 73 1007.0
20260506135317 62 45 2.0 2.0 0.00 0.10 0.01 72 1007.0
20260506134317 62 248 2.0 3.0 0.00 0.10 0.01 72 1007.1
20260506133317 63 248 2.0 4.0 0.00 0.10 0.01 71 1007.0
20260506132317 63 293 4.0 6.0 0.00 0.10 0.01 72 1007.1
20260506131336 61 315 2.0 3.0 0.00 0.10 0.01 74 1007.1
20260506130316 61 270 2.0 6.0 0.00 0.10 0.01 75 1007.2
20260506125316 61 293 3.0 4.0 0.00 0.10 0.01 75 1007.3
20260506124316 60 248 1.0 3.0 0.00 0.10 0.01 76 1007.2
20260506123317 60 270 1.0 3.0 0.00 0.10 0.01 76 1007.3
20260506122317 60 315 1.0 3.0 0.00 0.10 0.01 75 1007.3
20260506121337 60 0.0 0.0 0.00 0.10 0.01 75 1007.3
20260506120316 60 338 1.0 2.0 0.00 0.10 0.01 77 1007.2
20260506115316 60 248 1.0 2.0 0.00 0.10 0.01 74 1007.3
20260506114316 60 0.0 0.0 0.00 0.10 0.01 75 1007.3
20260506113316 60 0.0 0.0 0.00 0.10 0.01 75 1007.3
20260506112317 60 0.0 0.0 0.00 0.10 0.01 73 1007.5
20260506111316 60 0.0 0.0 0.00 0.10 0.01 72 1007.8
20260506110316 61 203 3.0 4.0 0.00 0.10 0.01 72 1007.9
20260506105316 61 225 3.0 4.0 0.00 0.10 0.01 71 1007.9
20260506104316 61 203 3.0 4.0 0.00 0.10 0.01 71 1008.0
20260506103316 62 203 3.0 6.0 0.00 0.10 0.01 72 1008.1
20260506102316 60 180 4.0 5.0 0.00 0.10 0.01 74 1008.1
20260506101316 60 135 3.0 3.0 0.00 0.10 0.01 74 1008.1
20260506100336 61 0.0 1.0 0.00 0.10 0.01 76 1008.0
20260506095316 60 315 1.0 2.0 0.00 0.10 0.01 75 1008.1
20260506094316 60 180 1.0 2.0 0.00 0.10 0.01 76 1008.1
20260506093316 59 180 1.0 2.0 0.00 0.10 0.01 76 1008.1
20260506092316 58 0.0 0.0 0.00 0.10 0.01 77 1008.1
20260506091316 58 180 1.0 2.0 0.00 0.10 0.01 78 1007.9
20260506090336 58 0.0 1.0 0.00 0.10 0.01 79 1007.9
20260506085316 57 180 1.0 2.0 0.00 0.10 0.01 80 1008.0
20260506084316 57 180 1.0 2.0 0.00 0.10 0.01 80 1008.1
20260506083316 57 0.0 0.0 0.00 0.10 0.01 81 1008.1
20260506082316 56 0.0 1.0 0.00 0.10 0.01 81 1008.2
20260506081316 56 180 1.0 2.0 0.00 0.10 0.01 83 1008.3
20260506080316 56 0.0 0.0 0.00 0.10 0.01 81 1008.4
20260506073316 57 203 3.0 3.0 0.00 0.10 0.01 80 1008.3
20260506072316 58 225 3.0 4.0 0.00 0.10 0.01 81 1008.4
20260506071316 57 180 2.0 5.0 0.00 0.10 0.01 84 1008.3
20260506070316 55 180 2.0 4.0 0.00 0.10 0.01 89 1008.2
20260506062356 50 0.0 0.0 0.00 0.10 0.01 95 1008.1
20260506061316 49 0.0 0.0 0.00 0.10 0.01 95 1008.1
20260506060316 49 0.0 0.0 0.00 0.10 0.01 95 1008.2
20260506051316 46 0.0 0.0 0.00 0.10 0.01 95 1008.4
20260506050316 46 0.0 0.0 0.00 0.10 0.01 94 1008.4
20260506044315 45 0.0 0.0 0.00 0.10 0.01 94 1008.6
20260506043336 44 0.0 0.0 0.00 0.10 0.01 94 1008.8
20260506042315 44 0.0 0.0 0.00 0.10 0.01 94 1008.7
20260506041315 44 0.0 0.0 0.00 0.10 0.01 94 1008.7
20260506040316 44 0.0 0.0 0.00 0.10 0.01 94 1008.6
20260506035316 44 0.0 0.0 0.00 0.10 0.01 94 1008.7
20260506034316 44 0.0 0.0 0.00 0.10 0.01 94 1008.6